User: anonymous
Location: Ostrava
(49.8330°N, 18.2830°E)
Time: 09:20:15
(UTC+02:00)
Language:

Cosmos 1400 Rocket - Orbit

View from above orbital plane
View from above orbital plane
View from above satellite
View from above satellite

Ground track
Ground track

The orbit data is extracted from the following two-line orbital elements,

1 13403U 82079B   14110.46419489  .00004102  00000-0  29649-3 0  5467
2 13403 081.1706 148.3656 0037821 113.2161 247.3051 15.03263456723149
Epoch (UTC): 20 April 2014 11:08:26
Eccentricity: 0.0037821
inclination: 81.1706°
perigee height: 530 km
apogee height: 583 km
right ascension of ascending node: 148.3656°
argument of perigee: 113.2161°
revolutions per day: 15.03263456
mean anomaly at epoch: 247.3051°
orbit number at epoch: 72314

The dashed part of the orbit path shows where the satellite is in the earth's shadow,  

DLR